Location: Bannatyne
(13.0833°N, 59.5333°W)
Time: 14:47:55
(UTC+00:00)

Transit 4A - Pass Details

Date: 20 January 2021
Orbit: 866 x 978 km, 66.8° (Epoch: 05 March)

Event Time Altitude Azimuth Distance (km) Brightness Sun altitude
Rises 23:51:50 0° 236° (WSW) 3,633 12.1 -28.2°
Reaches altitude 10° 23:55:16 10° 255° (WSW) 2,701 11.3 -29.0°
Maximum altitude 23:59:22 18° 296° (WNW) 2,192 10.3 -30.0°
Drops below altitude 10° 00:03:30 10° 337° (NNW) 2,719 10.4 -31.0°
Enters shadow 00:05:31 - 349° (N) 3,235 10.7 -31.4°
